Terug naar catalogus

FENGYUN 1C DEB

ActiefPO
NORAD 33674·DEBRIS·🇨🇳 China

Gelanceerd May 10, 1999 vanaf Taiyuan Satellite Launch Center

Loading…

Volgende Passages (komende 24 uur)

TLE

VersSource: Space-Track

Epoch: Sep 13, 2026, 01:10 UTC

1 33674U 99025DFK 26256.04926383  .00001123  00000-0  98910-3 0  9991
2 33674  98.5933 285.1926 0208422 221.5602 136.9546 13.77800989921414

Volg FENGYUN 1C DEB in realtime met AllMySat

Download on the App Store